COSMOS 249 DEB, 20011

Orbit data source: Space-Track

COSMOS 249 DEB, 20011 is space debris in LEO originally from a launch on Sun, 20 Oct 1968 UTC launched from the Tyuratam Missile And Space Complex (TTMTR). Debris objects in space refer to the collection of defunct objects orbiting the Earth. Examples of debris include non-operational satellites, rocket bodies, and fragments generated from explosions, collisions, or faulty payload assembly.

Loading next visibility...
Identifier
20011, 1968-091DN
Orbit
LEO
Country
Flag of CISCIS
Related business
Manufacturer
Unknown
Mission
Spacecraft
Bus & Motor
Unknown
Mass
Unknown
Launch date (UTC)
1968-10-20 (58 years ago)
Launch vehicle
Unknown
Launch site
Tyuratam Missile And Space Complex (TTMTR)
Object type
Payload
Rocket body
Debris
Shape & HBR
Unknown shape, 0.1 m
Radar Cross Section
Medium (>0.1 m² and <1 m²)

Expand to show TLE details & history
Last TLE update: 1 day ago

TLE from 1 day ago
0 COSMOS 249 DEB
1 20011U 68091DN  26235.07269208  .00001425  00000-0  15900-2 0  9999
2 20011  62.2194 260.3940 0628064 322.5943  33.2852 13.11213953651675
Epoch: 2026-08-23T01:44Z
TLE epoch observation values (Epoch: 2026-08-23T01:44:40.595Z)
Latitude
0.00001°
Longitude
-97.14913°
Altitude
831.037 km
Speed
7.626 km/s
True Right ascension
17h 21m 34s
True Declination
0° 00' 00"
Sunlit
Object was in daylight at epoch
Visualization orbit readout
Latitude
Unknown
Longitude
Unknown
Altitude
Unknown
Speed
Unknown
Apparent Right ascension
Unknown
Apparent Declination
Unknown
Sunlit
N/A
Visualization observer readout
Local Sidereal Time
20:04:20
Azimuth
Unknown
Elevation
Unknown
Doppler factor
Unknown
Orbital elements
Apogee altitude
1,694.508 km
Perigee altitude
740.404 km
Semi-major axis
7,595.593 km
Eccentricity
0.06281
Inclination
62.2194°
RAAN
260.394°
Arg. of periapsis
322.5943°
True anomaly
37.50773°
Mean anomaly
33.2852°
Eccentric anomaly
35.36814°
Mean motion
3.27869 °/min
Orbital period
109.8 mins
BSTAR
0.00159
Loading maneuver chart data...
Computing Atmospheric mass density...

Documentation

Showing up to 5 results
|